Theta_e
308 308 308 309 310 310 310 310 311 312 312 312 312 313 315 316 317 317 316 318 318 319 324 327 326 329 349 356 347 339 349 352 346 340 340 344 345 348 349 349 349 349 351 350 350
307 307 308 308 309 309 310 310 311 311 312 312 313 312 312 314 316 317 317 317 323 326 326 326 336 339 341 343 343 343 347 346 343 343 338 345 346 346 349 348 348 349 350 351 349
307 307 307 307 308 309 309 310 311 311 312 312 313 313 312 312 315 319 326 319 325 324 325 326 330 337 340 341 345 343 348 343 340 342 341 340 342 343 347 350 348 349 349 351 351
307 307 307 307 307 308 309 309 310 311 311 312 313 313 312 312 320 327 325 323 322 323 324 325 326 331 336 338 343 344 343 342 341 342 343 338 341 342 342 347 349 348 349 350 348
309 308 307 307 307 308 308 309 309 310 311 311 312 313 311 314 316 322 322 322 321 322 323 325 326 330 334 337 342 342 339 339 340 340 340 339 341 342 343 348 348 346 346 349 347
311 310 309 308 308 309 308 309 309 310 311 311 312 312 311 316 320 321 322 323 322 321 320 325 328 331 335 335 341 344 342 342 341 343 341 338 337 342 344 348 348 347 346 347 347
310 311 311 310 309 309 309 310 310 310 311 310 311 311 311 317 322 324 324 323 323 325 324 325 330 332 334 332 334 334 342 343 341 341 340 339 337 340 345 347 349 348 348 347 345
313 312 311 311 311 310 310 310 310 311 311 310 310 312 313 320 322 323 325 325 326 325 326 327 328 329 330 329 328 329 329 330 340 336 340 340 345 339 342 347 348 348 348 348 347
314 315 314 312 312 311 311 311 311 312 311 311 311 315 324 324 324 323 323 324 324 328 327 327 326 326 326 324 324 326 328 329 340 339 340 343 345 342 341 345 346 347 347 347 347
311 312 314 315 313 312 312 311 316 320 320 319 321 327 323 323 327 324 324 323 325 326 324 325 327 324 322 322 325 326 328 329 340 340 343 343 344 341 343 342 344 346 345 345 345
307 308 311 314 314 312 310 314 317 321 324 329 326 321 321 324 328 327 325 324 323 323 322 325 324 324 323 323 325 328 329 330 338 342 344 346 343 340 339 339 340 344 344 345 344
307 307 308 312 314 311 313 314 314 316 316 315 316 319 326 328 329 328 326 323 323 321 322 324 324 325 326 326 326 327 329 330 343 342 341 345 345 341 341 340 340 342 343 343 344
304 306 307 310 314 313 315 315 314 314 313 314 315 316 316 321 324 329 327 323 323 323 325 324 324 326 326 326 327 327 328 331 344 343 342 342 346 343 339 341 342 341 343 343 344
302 303 304 308 313 312 313 314 314 313 312 317 318 318 317 318 323 327 327 327 327 326 326 325 325 327 326 325 326 326 329 332 342 342 346 343 353 347 343 344 343 343 341 342 343
303 302 302 302 307 313 312 313 313 313 318 325 323 322 320 318 324 326 329 327 327 326 324 325 326 326 325 325 325 327 330 332 332 341 343 343 346 348 347 349 345 343 341 341 342
305 304 303 304 305 311 311 312 313 314 319 324 325 322 319 319 321 324 327 327 328 326 325 326 328 326 325 326 325 326 328 329 331 333 343 342 346 343 341 349 346 343 344 342 342
304 305 305 304 306 309 310 312 312 315 323 327 325 325 322 320 320 321 323 324 324 327 326 325 326 326 327 324 324 324 323 328 331 333 334 341 343 344 340 342 347 345 344 344 343
304 304 306 307 307 310 311 312 315 321 319 323 324 326 325 324 322 322 321 323 324 325 326 327 326 326 327 325 323 323 323 326 331 334 334 334 345 343 342 342 344 345 345 344 345
304 304 305 311 309 310 311 314 316 319 320 319 319 322 326 327 326 323 322 323 323 324 324 327 327 328 327 327 325 324 324 324 325 329 332 334 334 339 342 341 341 341 342 342 342
304 306 305 312 312 311 313 314 316 317 317 316 317 320 321 320 321 326 323 324 325 324 324 325 328 327 328 327 326 324 325 324 325 327 332 333 334 339 343 342 342 341 342 342 342
306 308 305 310 311 312 313 314 314 315 316 317 318 319 319 319 320 320 323 326 326 326 325 324 325 327 328 327 325 323 324 322 324 327 328 332 333 334 340 342 343 342 342 343 343
305 307 305 307 310 313 313 314 314 315 315 316 317 318 319 319 319 320 320 320 327 329 326 325 325 326 327 328 327 326 323 321 324 327 328 327 329 332 339 342 342 342 341 342 342
304 305 305 307 309 311 312 313 313 313 315 315 316 317 318 319 319 320 321 322 321 322 329 326 326 325 326 326 327 327 326 324 323 321 324 328 330 330 332 340 342 341 340 342 342
305 306 306 308 309 310 312 314 314 313 313 314 314 316 318 318 319 320 321 322 322 321 327 333 326 325 326 327 328 330 327 326 324 323 322 324 324 328 336 339 338 339 340 340 340
304 306 306 308 309 308 310 311 312 311 312 312 313 314 316 320 320 321 321 320 320 322 324 322 326 327 326 328 329 328 329 328 326 325 324 323 324 326 328 338 338 339 339 338 338
304 305 305 305 306 307 308 309 310 310 311 311 312 314 314 316 316 315 314 315 318 319 318 318 328 330 329 328 327 328 328 328 328 327 326 326 327 329 328 339 340 339 338 339 341
303 305 305 305 306 306 306 308 309 309 310 310 311 312 313 313 312 312 312 313 314 316 319 319 322 329 328 329 330 329 327 327 329 329 328 327 326 328 328 332 335 339 338 337 337
Wind_Speed
20 20 19 18 18 18 18 19 18 18 18 19 19 19 20 22 22 24 30 26 20 18 17 12 12 14 16 18 12 25 2 9 8 7 8 17 14 27 33 44 31 10 37 37 35
19 19 19 19 19 20 20 20 20 20 18 18 18 19 20 23 25 30 27 22 18 14 22 21 16 10 16 18 11 7 3 8 11 0 1 25 31 28 26 29 12 34 31 44 37
19 19 19 19 20 21 21 21 21 21 21 18 19 18 18 19 25 16 13 13 22 16 15 15 17 19 22 15 13 12 8 11 14 22 10 18 20 28 27 16 34 37 37 47 38
21 21 20 20 20 21 22 22 22 23 22 21 19 18 17 14 6 5 5 1 14 17 21 19 20 23 14 6 11 6 21 12 7 18 20 12 24 22 25 27 42 43 46 46 39
23 22 22 22 22 22 22 22 22 22 22 22 21 18 17 10 29 12 11 10 6 17 26 22 23 23 13 11 15 6 7 13 30 33 20 22 16 18 22 41 42 39 37 39 38
25 24 24 24 23 24 24 23 23 23 21 21 21 18 15 12 17 7 19 21 16 15 20 24 21 23 19 18 13 18 16 16 17 28 17 12 13 20 31 42 39 37 34 29 31
28 27 26 25 25 25 25 24 22 22 21 19 19 19 19 37 9 6 15 16 16 18 16 23 23 24 19 14 29 11 10 13 18 19 17 22 9 10 35 40 38 35 32 28 26
32 30 28 27 26 26 26 25 23 21 19 19 17 16 18 29 13 15 20 19 14 16 19 18 19 23 23 19 22 14 9 8 10 10 20 19 3 16 31 37 34 36 33 32 32
35 35 33 30 28 29 27 24 21 20 18 16 11 10 17 13 19 28 24 25 20 21 22 14 19 26 19 8 8 8 10 10 3 3 5 8 6 11 13 30 32 35 34 33 34
34 35 35 33 27 27 27 20 14 15 9 7 10 7 21 19 17 19 23 22 22 19 19 23 19 10 9 7 11 10 8 11 7 10 7 9 7 11 16 11 32 35 36 34 36
36 34 31 30 26 23 22 16 14 5 3 11 11 14 33 15 13 20 24 29 26 21 11 21 8 16 13 15 13 14 15 13 5 11 7 4 12 16 18 15 19 35 37 37 39
34 35 36 31 23 14 11 11 13 20 17 23 37 43 41 26 16 25 27 24 21 13 10 10 19 12 14 12 18 21 18 19 12 7 9 16 16 16 15 22 24 31 37 39 39
29 32 34 33 20 5 10 16 16 16 10 23 38 32 43 37 36 23 30 32 15 18 19 17 9 18 18 19 19 23 20 15 10 5 7 7 11 11 13 20 25 27 42 43 45
28 27 29 33 8 8 4 10 8 18 5 9 10 14 25 29 13 38 36 30 14 19 18 16 18 19 22 22 18 20 21 21 15 15 8 13 8 15 15 19 16 28 39 41 44
30 27 25 20 26 19 16 12 13 14 6 7 8 6 16 29 14 32 36 34 18 18 11 19 19 21 20 24 19 23 13 18 18 7 14 12 3 8 18 17 21 24 38 42 45
28 28 26 22 20 17 12 7 10 2 10 7 10 8 12 24 18 8 37 33 24 16 18 17 20 19 20 15 20 15 15 20 15 6 4 16 9 8 9 23 23 24 36 46 45
28 26 26 23 23 13 13 6 2 7 8 8 6 12 18 11 21 17 22 23 18 19 18 20 23 16 21 17 16 20 15 12 10 10 5 20 15 13 13 10 26 23 30 36 46
33 26 19 23 22 6 3 3 10 8 14 17 16 10 17 14 20 24 23 23 25 18 8 14 17 22 15 25 15 18 17 13 10 11 9 7 10 10 16 18 27 37 34 28 30
34 30 23 17 12 12 12 9 6 9 8 17 19 10 14 17 15 20 22 21 25 23 20 14 19 8 23 17 20 8 20 14 6 10 6 7 9 6 19 7 13 23 31 31 32
34 32 25 8 14 24 11 16 8 14 24 16 11 9 9 14 14 17 20 17 21 27 23 16 7 21 18 22 17 18 6 14 12 15 18 15 9 7 18 14 14 12 15 14 21
23 13 14 11 15 24 16 13 17 28 32 13 14 23 24 23 19 23 14 22 22 25 26 25 20 18 19 18 22 8 17 10 7 14 9 8 14 6 10 20 19 20 33 33 37
12 5 10 22 13 11 12 17 29 26 33 25 20 26 26 25 27 25 23 20 19 26 25 24 17 17 24 15 23 24 14 11 9 5 5 10 15 8 7 23 27 27 31 36 51
12 20 20 12 5 10 14 21 24 21 17 16 23 24 22 25 24 15 23 27 29 22 25 16 20 12 15 17 20 24 20 15 13 5 15 5 12 17 14 14 23 27 26 27 39
8 5 10 22 12 13 11 12 13 20 16 19 17 22 20 24 17 16 23 20 21 19 23 9 20 28 20 19 5 7 22 19 19 16 10 23 9 15 5 8 14 29 29 15 19
5 6 16 7 12 17 4 7 19 10 15 19 10 17 17 11 15 9 12 15 21 22 15 4 15 21 27 16 16 25 14 26 25 21 17 14 16 14 14 10 11 20 20 23 24
6 6 9 18 19 17 14 11 17 13 9 11 13 22 14 8 17 20 19 15 11 14 16 10 8 11 10 20 27 20 19 24 26 24 21 16 17 5 8 17 14 17 34 14 15
9 12 10 6 10 13 12 17 18 14 12 11 13 13 21 19 15 27 27 26 21 22 20 9 4 4 9 7 4 11 30 22 13 18 19 19 12 7 9 4 11 23 30 34 32
Wind_Direction
334 332 330 326 320 316 315 313 312 309 306 306 304 303 301 298 294 287 271 262 252 246 254 265 252 202 209 212 90 104 65 304 304 92 150 125 110 123 130 129 139 161 150 152 154
334 332 330 324 319 315 313 312 310 308 306 305 303 303 304 302 300 288 282 265 218 221 246 243 236 225 229 242 114 97 110 281 329 321 210 124 130 140 124 132 151 137 152 151 150
333 330 327 323 319 316 313 311 308 307 305 304 302 303 306 308 310 292 322 225 196 213 240 244 242 238 231 229 168 142 201 216 288 277 268 124 135 131 136 148 148 150 146 152 160
333 329 326 322 318 315 313 310 307 305 304 303 301 301 301 302 280 332 355 129 207 227 232 237 244 255 255 220 159 150 247 217 234 251 260 139 137 138 161 160 150 149 153 159 164
332 329 328 324 318 314 311 308 306 302 301 300 298 299 298 269 257 222 273 283 237 224 226 224 237 243 244 236 162 220 259 208 242 252 277 137 140 164 143 137 144 151 160 167 170
330 328 327 326 320 316 313 308 305 302 298 296 294 294 283 251 290 233 244 247 241 242 227 217 231 233 250 256 176 208 216 298 271 233 185 148 129 117 136 139 145 151 164 179 172
328 326 324 323 322 317 313 309 305 299 296 291 288 287 263 253 260 262 238 241 235 231 230 216 227 255 249 267 270 256 198 242 267 193 135 136 144 133 141 145 149 155 168 181 183
328 326 324 324 321 319 314 311 304 295 291 286 283 275 258 274 262 222 215 231 235 222 229 225 233 254 269 280 295 282 271 261 219 184 146 138 183 136 151 148 155 158 172 184 190
329 325 325 325 325 323 318 316 305 296 284 277 275 251 271 292 244 210 218 221 216 233 222 217 231 235 247 254 288 277 258 256 134 116 168 106 191 153 163 156 160 165 176 189 193
332 329 324 323 327 325 322 324 329 305 287 260 193 290 252 247 229 217 210 208 209 217 233 234 227 232 224 207 227 244 246 255 181 204 107 122 172 173 167 162 165 170 178 190 194
337 334 326 321 327 327 324 355 359 355 264 241 228 222 280 282 236 202 201 207 217 224 217 221 213 228 222 216 236 253 250 260 183 127 94 13 165 196 211 212 198 175 178 187 194
335 335 334 328 329 325 314 325 315 317 292 267 253 252 256 249 280 227 193 194 210 209 209 217 225 226 240 228 228 250 258 262 26 163 119 150 197 237 170 219 195 188 181 185 192
335 334 332 328 326 289 310 339 343 323 282 281 247 240 233 239 245 229 188 188 196 213 219 217 224 215 227 237 220 237 244 257 155 287 302 212 211 233 232 198 203 216 184 187 191
338 336 334 334 323 290 292 337 342 340 287 270 205 247 223 212 241 236 200 201 218 212 225 225 222 220 218 235 224 232 235 250 172 190 191 196 215 218 218 209 210 220 187 190 193
334 334 331 341 312 308 312 298 357 333 299 241 193 195 196 176 149 223 216 197 208 211 194 225 208 224 220 222 226 238 241 248 252 157 179 248 342 220 213 217 221 202 190 192 193
330 327 325 322 286 317 325 340 336 260 245 269 146 161 140 200 230 280 206 220 206 219 236 232 229 224 233 226 223 241 238 254 260 215 203 194 175 269 180 191 218 197 191 192 196
325 320 314 302 290 299 297 323 206 230 270 230 177 168 186 175 212 227 192 216 212 204 222 236 236 228 223 227 217 217 231 241 251 245 212 203 202 213 222 192 189 196 198 193 194
324 321 310 293 288 280 340 277 237 239 228 297 316 257 199 208 202 215 224 209 220 224 200 223 237 230 220 218 219 212 217 227 224 232 250 205 201 216 218 193 179 192 193 198 196
328 322 311 320 265 247 233 226 208 208 278 357 335 315 254 206 213 201 220 214 208 210 221 207 235 228 228 237 214 229 215 225 253 256 257 227 264 218 211 162 152 156 180 217 209
330 324 309 280 280 219 228 236 247 296 323 340 317 286 316 326 319 206 209 217 210 206 217 242 244 226 243 224 239 214 203 217 229 235 248 254 246 241 189 172 177 179 177 207 214
332 312 307 335 254 215 227 239 259 274 284 286 284 287 290 293 291 289 278 218 213 201 208 221 242 259 227 213 215 217 221 229 198 222 231 242 252 250 188 179 170 181 191 183 210
315 290 306 301 313 233 247 257 264 265 270 276 277 284 283 289 289 282 271 274 261 204 206 206 222 239 251 263 206 216 208 199 222 287 248 238 254 289 171 187 186 188 192 194 197
307 292 306 304 262 266 273 263 263 273 304 314 301 284 274 269 282 267 286 284 280 296 208 201 213 224 250 259 253 213 211 207 221 185 236 221 246 252 251 141 185 198 214 216 213
304 304 303 344 275 311 316 312 329 324 309 311 319 318 319 272 278 288 296 285 282 282 293 282 206 214 222 234 242 225 207 202 200 224 228 239 252 279 199 196 176 176 192 239 266
271 273 313 303 328 326 222 276 287 312 319 351 320 332 350 320 320 315 344 336 320 322 325 240 248 211 215 212 222 240 236 206 210 210 212 233 229 232 242 202 220 174 190 211 249
268 297 329 306 309 311 304 295 352 324 321 304 304 326 313 291 296 316 329 323 295 329 344 334 284 181 195 207 221 240 240 241 214 215 229 234 249 184 254 213 195 202 192 201 218
264 281 278 285 303 304 304 320 325 339 302 310 318 306 305 300 277 268 283 275 263 279 291 282 341 278 206 158 237 263 237 245 251 218 208 220 223 235 260 236 229 228 203 190 227